Regional Weather Roundup
Issued by NWS

Home | Current Version | Previous Version | Graphics & Text | Print | Product List | Glossary On
Versions: 1 2 3 4 5 6 7 8 9 10 11 12 13 14 15 16 17 18 19 20 21 22 23 24 25 26 27 28 29 30 31 32 33 34 35 36 37 38 39 40 41 42 43 44 45 46 47 48
000
ASUS43 KDMX 022107
RWRIA

WEATHER ROUNDUP FOR IOWA
NATIONAL WEATHER SERVICE DES MOINES IA
400 PM CDT THU JUL 02 2015

NOTE: "FAIR" INDICATES FEW OR NO CLOUDS BELOW 12,000 FEET WITH NO
SIGNIFICANT WEATHER AND/OR OBSTRUCTIONS TO VISIBILITY.

* - THESE STATIONS ARE NOT NWS STATIONS...THUS NOT UNDER NWS
QUALITY CONTROL.  THEY ALSO DO NOT REPORT WEATHER SUCH
AS PRECIPITATION OR FOG.

IAZ001>003-012>014-020>022-031>034-043>046-022200-
   NORTHWEST IOWA

CITY           SKY/WX    TMP DP  RH WIND       PRES   REMARKS
CARROLL *      SUNNY     66  59  77 SE9       30.00S
CHEROKEE *     CLOUDY    68  59  73 SE5       30.00S
DENISON *      PTSUNNY   68  61  77 E7G14     29.97S
LE MARS *      MOSUNNY   68  59  73 E9        30.00S
ORANGE CITY *  SUNNY     70  57  64 E5        29.99F
SHELDON *      MOSUNNY   72  61  68 SE8       29.99S
SIOUX CITY     LGT RAIN  68  62  81 E9        29.98R
SPENCER        CLOUDY    71  47  42 E7        30.01S
STORM LAKE *   MOSUNNY   66  57  72 SE9       30.01S
$$

IAZ055>058-069>071-079>083-090>094-022200-
   SOUTHWEST IOWA

CITY           SKY/WX    TMP DP  RH WIND       PRES   REMARKS
ATLANTIC *     PTSUNNY   70  61  73 E8        29.97S
AUDUBON *      MOSUNNY   66  63  88 E7        30.00S
CLARINDA *     CLOUDY    70  66  88 E7G13     29.96F
COUNCIL BLFS * CLOUDY    68  64  88 E7        29.97R FOG
CRESTON *      PTSUNNY   70  61  73 E13       29.97F
HARLAN  *      MOSUNNY   70  66  88 E9        30.01S
LAMONI         LGT RAIN  69  62  78 E6        29.97S
RED OAK *      PTSUNNY   70  66  88 E9G17     29.96R
SHENANDOAH *   PTSUNNY   72  68  88 E12       29.94F
$$

IAZ047>049-059>061-072>074-084-022200-
   CENTRAL IOWA

CITY           SKY/WX    TMP DP  RH WIND       PRES   REMARKS
AMES           CLOUDY    70  51  51 E8        29.99F
ANKENY *       SUNNY     66  55  68 CALM      29.98F
CHARITON *     SUNNY     68  54  60 E8        29.98S
DES MOINES     CLOUDY    68  49  50 SE5       29.98F
GRINNELL*      CLOUDY    68  54  60 E6        29.99F
KNOXVILLE *    SUNNY     68  50  52 E5        29.97F
MARSHALLTOWN   CLOUDY    68  53  58 E7        29.99F
PELLA *        CLOUDY    70  54  56 E6        29.99F HAZE
PERRY *          N/A     66  55  68 SE5       30.01R
$$

IAZ004>006-015-016-023>025-035-036-022200-
   NORTH CENTRAL IOWA

CITY           SKY/WX    TMP DP  RH WIND       PRES   REMARKS
ALGONA *       SUNNY     70  54  56 S9        30.01S
CLARION *      SUNNY     70  48  46 SE9G15    30.01S
ESTHERVILLE    PTSUNNY   70  53  54 SE10      30.01F
FORT DODGE *   CLOUDY    70  54  56 SE7       30.01S
MASON CITY     PTSUNNY   73  54  51 E7        30.02F
FOREST CITY *  SUNNY     70  52  52 S6        30.01F
IOWA FALLS *     N/A     70  54  56 E5        30.01F
$$

IAZ007>011-017>019-026>030-037>042-050>054-066-022200-
   NORTHEAST IOWA

CITY           SKY/WX    TMP DP  RH WIND       PRES   REMARKS
CEDAR RAPIDS   CLOUDY    71  54  54 VRB7      29.99R
CHARLES CITY * SUNNY     72  55  56 VRB5      30.02S
CLINTON *      MOSUNNY   70  54  56 NE12      30.00F
DECORAH *        N/A    N/A N/A N/A MISG        N/A
DUBUQUE        MOSUNNY   71  48  43 E10       30.00S
MONTICELLO *   SUNNY     72  54  53 E8        29.99S
OELWEIN *      SUNNY     72  55  56 NE8       30.01S
WATERLOO       PTSUNNY   72  52  49 E9        29.99S
$$

IAZ064-065-067-068-078-022200-
   EAST CENTRAL IOWA

CITY           SKY/WX    TMP DP  RH WIND       PRES   REMARKS
DAVENPORT      MOSUNNY   71  53  52 E9        29.97F
IOWA CITY      CLOUDY    71  51  49 E7        29.99R
MT. PLEASANT * CLOUDY    73  46  38 E7        29.97S
MUSCATINE *    SUNNY     73  52  46 NE6       29.97S
QUAD CITIES    PTSUNNY   71  56  58 E12       29.96F
$$

IAZ062-063-075>077-085>089-095>099-022200-
   SOUTHEAST IOWA

CITY           SKY/WX    TMP DP  RH WIND       PRES   REMARKS
BURLINGTON     CLOUDY    72  59  63 NE8       29.96S
FAIRFIELD *    SUNNY     70  52  52 NE5G12    29.97F
FORT MADISON * SUNNY     72  57  60 E6        29.97S
KEOKUK *       SUNNY     70  59  68 NE5       29.95F
OSKALOOSA *      N/A     70  52  52 E6        29.98F
CENTERVILLE *  SUNNY     66  55  68 NE7       29.99S
OTTUMWA        CLOUDY    69  51  52 E7        29.96F
WASHINGTON *   SUNNY     72  52  49 E7        29.99S
$$

ABBREVIATIONS USED IN REMARKS
   TC - TEMPERATURES IN CELSIUS
  WCI - WIND CHILL INDEX
   HX - HEAT INDEX
  VSB - VISIBILITY
$$




USA.gov is the U.S. government's official web portal to all federal, state and local government web resources and services.